EHI
1 1 2 3 4 4 4 3 3 3 2 2 2 2 2 1 1 1 2 4 6 7 9 11 10 9 8 8 8 6 4 2 1 0 1 1 1 1 2 2 1 0 0
1 2 3 3 3 3 3 2 2 2 1 1 1 2 2 2 2 1 1 3 5 6 9 11 12 11 10 9 9 7 5 3 2 2 2 1 1 0 1 1 0 0 0
3 3 3 3 2 1 1 1 0 0 0 0 0 1 1 2 2 1 1 1 3 4 8 11 13 12 11 10 9 8 6 5 5 5 4 3 2 1 0 0 0 0 0
5 4 3 2 1 0 0 0 0 0 0 0 0 0 1 2 2 2 2 1 1 3 6 11 13 14 12 8 6 6 5 5 5 5 4 4 4 3 1 0 0 0 0
3 3 2 1 1 0 0 0 0 0 0 0 0 0 0 1 2 3 3 2 2 3 7 12 15 16 14 8 5 4 4 4 4 4 4 4 5 4 2 1 0 0 0
1 2 2 1 0 0 0 0 0 0 0 0 0 0 0 0 1 2 3 2 2 3 6 10 12 11 10 8 5 4 5 5 4 4 5 6 5 4 2 1 0 0 0
2 3 3 2 0 0 0 0 0 0 0 0 0 0 0 0 0 1 3 3 1 2 5 6 5 4 4 6 5 4 6 7 6 6 7 8 7 4 1 0 0 0 0
3 4 4 2 1 1 2 1 1 0 0 0 0 0 0 0 0 1 2 3 1 1 3 3 1 0 1 2 2 2 5 7 7 7 8 9 8 4 1 0 0 0 0
4 4 4 3 3 3 3 2 1 1 1 1 1 2 2 1 1 0 1 1 0 1 2 2 1 0 0 0 0 1 4 6 6 6 6 6 5 2 0 0 0 0 0
5 5 5 5 5 5 5 3 2 3 4 4 4 5 4 2 1 0 0 0 0 0 1 1 1 0 0 0 0 1 4 6 4 3 3 2 1 0 0 0 0 0 0
6 7 7 6 6 6 6 4 4 7 8 8 8 8 6 3 1 0 0 0 0 0 0 0 0 0 0 1 1 2 4 4 3 1 1 0 0 0 0 0 0 0 0
6 7 8 7 6 6 6 7 8 9 10 10 9 9 8 5 3 2 2 2 1 0 0 0 0 0 0 0 1 2 2 1 1 0 0 0 0 1 1 1 1 0 0
7 7 8 9 8 6 7 9 10 9 8 9 9 9 11 10 7 7 6 5 4 2 0 0 0 0 0 0 1 2 1 0 0 0 0 0 0 1 2 2 1 0 0
7 8 9 11 10 8 10 12 11 9 8 9 9 10 11 11 10 10 9 8 6 3 1 0 0 0 0 0 2 2 2 0 0 0 0 0 0 1 1 1 1 0 0
7 8 10 11 10 9 11 12 10 8 9 10 10 10 10 10 10 10 10 8 7 5 2 0 0 0 0 0 1 2 1 0 0 0 0 0 0 0 0 0 0 0 0
8 9 9 9 8 8 8 9 7 7 7 8 8 8 9 9 8 8 8 7 7 6 4 1 0 0 0 0 0 0 0 0 0 0 0 0 0 0 0 0 0 0 0
9 9 10 9 8 7 6 6 6 6 6 6 5 5 6 6 4 5 6 6 6 6 4 2 1 1 0 0 0 0 0 1 0 0 0 0 0 0 0 0 0 0 0
8 9 11 11 10 9 9 9 8 7 6 5 3 3 2 2 1 2 3 4 4 4 4 3 2 1 0 0 0 0 0 0 0 0 0 0 0 0 0 0 0 0 0
7 8 10 11 11 11 12 11 9 7 6 5 4 4 3 2 1 1 2 3 3 3 3 3 2 1 0 0 0 0 0 0 0 0 0 0 0 0 0 0 0 0 0
7 7 8 8 9 11 11 11 10 7 6 6 6 7 6 5 3 2 2 2 2 1 2 2 1 0 0 0 0 0 0 0 0 0 0 0 0 0 0 0 0 0 0
8 7 7 7 8 8 9 10 9 7 7 7 8 8 7 6 4 2 2 1 0 0 1 1 0 0 0 0 0 0 0 0 0 0 0 0 0 0 0 0 0 0 0
7 7 7 7 7 7 7 7 6 6 7 8 8 6 5 5 3 1 1 0 0 0 0 1 1 1 0 0 1 0 0 0 0 0 0 0 0 0 0 0 0 0 0
5 6 7 7 7 6 4 3 3 4 6 7 6 4 4 4 2 1 0 0 0 0 0 1 2 1 0 0 1 1 0 0 0 0 0 0 0 0 0 0 0 0 0
4 6 8 7 6 5 3 2 2 3 5 6 4 3 3 3 2 1 0 0 0 0 0 1 1 1 0 0 0 1 0 0 0 0 0 0 0 0 0 0 0 0 0
4 6 7 7 6 5 3 2 2 3 5 5 4 3 3 2 1 0 0 0 0 0 0 0 0 0 0 0 0 0 0 0 0 0 0 0 0 0 0 0 0 0 0
4 5 6 7 6 6 4 3 2 3 5 5 4 3 3 2 1 0 0 0 0 0 0 0 0 0 0 0 0 0 0 0 0 0 0 0 0 0 0 0 0 0 0
Wind_Speed
2 2 1 1 2 1 1 1 2 2 2 2 2 2 3 3 3 3 3 8 9 9 10 11 11 11 11 11 11 10 10 10 10 10 10 10 10 10 10 10 9 9 9
2 1 1 1 1 2 2 2 2 2 2 1 2 2 2 3 4 3 3 5 9 9 10 10 10 11 11 11 11 11 11 10 10 10 10 10 10 10 10 10 10 9 8
2 1 1 1 1 1 1 1 1 1 1 1 2 2 2 3 4 4 4 3 4 8 9 9 9 10 11 11 10 10 10 10 10 10 11 11 11 10 10 10 9 9 8
2 1 1 1 1 0 0 0 0 0 1 1 1 2 1 1 3 3 3 3 3 3 6 9 9 9 10 10 10 10 9 9 10 10 11 11 11 10 10 9 9 9 9
1 1 1 1 1 0 0 1 0 0 1 1 1 1 1 1 2 3 3 3 3 3 3 5 8 8 9 9 10 10 10 10 9 9 10 10 11 10 10 10 9 9 9
1 1 1 1 0 0 0 0 0 0 1 1 1 1 2 2 1 2 2 2 2 3 2 3 3 4 6 6 7 8 9 9 9 9 9 10 10 10 10 10 10 10 10
2 2 1 0 0 0 1 1 1 0 1 0 1 2 2 2 1 1 1 2 2 2 2 2 2 1 2 4 4 5 7 8 9 9 9 9 9 9 10 10 10 10 9
2 2 2 1 1 0 0 1 1 0 1 0 1 1 2 3 2 1 1 2 2 2 2 3 3 3 2 1 2 4 4 5 7 8 8 8 8 7 7 9 9 9 9
1 1 2 1 1 1 1 1 1 2 1 1 1 3 2 2 3 2 2 1 1 1 2 2 3 3 3 2 2 4 5 5 6 7 7 7 6 7 7 7 8 9 8
1 1 1 1 1 1 1 1 1 1 2 1 1 1 2 3 2 2 2 2 2 2 3 2 2 3 3 2 3 4 5 5 5 6 7 6 6 6 7 7 7 7 7
1 1 1 1 1 1 1 1 1 1 1 2 1 1 1 1 1 2 2 3 2 2 3 3 2 3 3 3 3 4 6 5 5 5 5 6 6 6 7 7 8 7 7
1 1 1 1 1 1 1 1 1 1 1 1 1 1 1 1 2 2 2 2 2 3 2 2 2 3 3 3 4 5 5 5 5 5 4 4 5 5 6 7 7 7 7
1 1 1 1 1 1 1 1 1 1 1 1 1 1 2 2 2 2 2 2 2 2 1 1 3 3 3 2 3 5 5 5 5 5 4 4 4 4 4 5 5 6 6
2 1 1 0 1 1 1 1 1 1 1 1 1 1 1 2 1 2 2 2 1 2 2 3 2 3 2 2 4 5 4 5 5 5 4 4 3 3 3 2 3 4 4
2 1 1 0 0 0 1 0 1 1 1 1 1 1 1 2 1 1 2 3 3 2 3 3 2 3 2 2 4 3 3 5 5 5 5 4 3 3 3 2 2 3 3
1 1 0 0 0 0 1 1 1 1 1 2 1 1 1 2 1 1 1 2 2 3 3 3 3 3 2 2 3 3 4 5 5 5 5 5 4 4 3 3 3 3 3
1 1 1 1 0 0 0 0 1 1 2 2 2 1 2 2 1 2 2 1 1 2 3 3 2 2 1 2 2 2 2 3 3 5 5 5 5 4 4 4 3 3 2
1 1 1 1 1 1 1 1 1 1 2 2 2 2 2 2 2 2 1 2 2 2 2 3 2 1 2 2 2 2 2 2 2 4 4 4 4 5 4 4 3 3 2
1 1 1 1 1 1 1 1 1 2 2 3 2 2 3 2 2 2 2 2 2 2 1 2 2 1 1 1 0 1 1 1 2 3 4 3 4 4 4 4 4 4 3
2 2 1 2 2 2 2 1 1 2 2 3 3 3 3 2 3 3 2 2 2 1 1 1 1 1 1 1 0 0 1 1 2 2 2 2 3 4 4 4 5 4 4
2 2 2 2 2 2 2 2 2 2 3 3 3 3 3 2 3 3 2 2 1 1 1 1 1 1 1 1 1 1 1 1 2 1 0 1 1 1 2 4 4 4 4
1 1 1 2 2 2 2 2 1 2 3 3 3 3 3 2 3 3 2 2 2 2 2 2 2 2 3 2 1 1 1 1 2 2 1 1 1 2 2 2 4 4 4
1 1 2 2 2 3 3 3 3 2 2 2 2 2 3 2 2 2 3 3 3 3 3 4 4 4 4 4 3 2 2 2 3 2 1 1 1 2 2 3 5 5 5
2 2 2 2 2 3 3 2 2 1 2 2 2 2 2 3 3 2 2 2 3 3 4 3 4 4 4 4 4 4 3 1 1 1 2 2 1 2 2 2 4 4 4
2 2 2 2 2 2 2 2 2 1 1 3 3 2 2 3 4 2 1 2 3 4 4 3 3 3 2 3 3 2 1 1 0 2 1 2 1 1 1 1 2 3 4
2 2 1 1 2 2 2 2 1 0 1 3 3 3 4 3 4 2 1 2 3 4 3 2 2 2 2 2 2 3 3 2 1 1 2 1 1 1 1 2 1 1 1
Wind_Direction
199 200 215 223 239 232 218 224 243 244 242 240 238 209 199 205 207 202 211 209 211 214 213 210 208 208 208 210 212 215 218 222 222 222 224 227 228 227 227 228 230 231 231
182 188 202 218 234 224 211 204 223 236 243 232 240 218 201 197 199 201 203 207 208 211 214 212 211 212 213 213 215 218 220 225 225 224 225 227 230 231 231 232 232 233 235
177 177 199 224 241 239 222 203 238 258 257 251 250 241 213 196 194 200 202 202 207 213 215 213 212 213 214 215 218 223 224 228 229 227 226 226 228 231 233 235 234 233 234
183 176 199 235 248 194 196 213 236 299 287 269 252 254 241 203 199 196 190 199 206 218 223 220 218 220 220 221 224 226 225 227 229 230 230 227 229 230 233 236 237 236 233
189 167 187 242 233 132 218 244 199 192 275 295 262 246 243 229 212 202 191 198 210 218 220 225 227 228 225 231 233 233 230 229 230 232 231 230 230 229 232 236 239 240 234
189 162 169 267 309 62 345 326 239 249 228 265 285 287 255 241 208 198 204 200 202 208 211 219 228 238 231 236 237 237 237 234 232 233 233 231 230 232 233 235 236 236 235
181 146 141 127 58 185 226 228 199 261 285 15 30 342 331 301 258 217 195 183 197 208 194 199 201 203 240 239 235 235 242 242 238 234 235 232 228 234 237 236 237 235 235
175 159 157 178 185 154 306 270 192 155 274 154 129 63 346 338 332 288 221 200 202 196 198 203 202 193 211 224 245 240 244 253 252 245 240 236 233 237 238 235 233 232 233
173 170 166 174 186 180 217 248 203 176 236 266 162 141 156 242 303 312 285 239 211 213 222 205 200 200 203 209 232 240 240 252 256 251 244 236 236 240 243 240 234 229 230
194 188 178 174 186 195 214 250 221 200 184 240 269 211 193 182 182 289 314 286 237 227 226 218 209 210 209 210 216 225 228 232 242 248 245 240 239 238 240 239 236 235 236
245 220 198 179 186 203 213 249 262 217 184 203 229 242 243 230 182 184 269 293 294 255 234 222 212 213 212 214 218 225 222 220 231 246 245 240 238 238 239 241 240 238 241
279 277 208 195 200 209 216 243 253 231 232 218 222 207 199 206 212 192 227 261 272 271 251 230 219 217 216 219 228 221 219 220 230 241 243 242 244 246 246 241 241 243 243
240 252 241 242 239 236 230 243 244 252 243 228 226 224 214 216 203 186 188 245 268 277 283 260 235 223 224 211 231 223 224 226 229 235 240 240 245 250 253 240 240 245 246
215 211 205 255 279 277 280 269 261 256 255 242 256 245 238 242 204 189 189 193 265 291 282 262 260 231 228 212 226 219 231 226 227 231 234 236 234 240 240 241 239 242 249
204 175 183 180 303 327 335 336 295 283 281 259 257 263 265 269 258 236 206 187 189 246 269 258 258 249 231 220 222 211 225 231 231 232 232 229 221 224 226 224 223 229 236
202 169 179 188 4 356 3 16 326 318 335 305 280 294 283 281 286 274 248 231 196 194 240 248 242 256 243 229 225 217 223 235 233 229 228 224 219 220 219 213 214 219 228
192 187 200 186 175 160 312 91 296 315 309 303 306 311 288 290 297 290 275 260 239 192 225 262 256 270 239 236 246 235 220 220 232 231 227 222 220 221 217 214 217 219 227
205 195 190 188 202 216 226 199 260 302 273 285 295 302 298 303 310 301 287 266 252 225 206 245 264 273 259 245 230 230 235 233 235 235 229 229 219 215 214 216 220 226 232
203 197 182 199 232 250 266 244 244 263 258 261 260 253 264 271 289 288 285 275 270 271 231 224 251 263 282 299 344 280 270 293 249 236 227 228 215 211 217 221 223 229 237
204 213 217 224 226 242 255 264 279 268 270 274 264 246 247 243 251 261 271 274 273 278 251 226 246 287 300 314 96 289 296 294 273 268 258 233 221 220 226 230 233 237 241
216 213 213 232 240 241 252 271 262 270 275 284 284 269 263 271 275 261 256 243 238 247 249 235 243 283 292 321 252 224 228 274 281 268 293 273 212 226 239 245 239 244 246
255 240 232 235 249 266 279 284 283 264 268 268 278 286 289 301 316 314 294 256 217 210 206 207 220 228 243 237 229 216 182 183 266 266 190 258 178 228 236 230 242 237 239
233 245 250 243 251 273 288 290 290 265 264 261 257 271 292 305 308 289 290 292 279 254 210 197 208 225 227 222 200 205 208 206 226 234 164 238 235 239 240 246 246 242 237
221 235 245 249 255 292 313 311 314 294 272 271 260 244 250 280 288 275 264 285 279 272 251 229 217 229 227 213 198 196 201 211 291 269 165 198 241 244 253 246 252 249 246
247 250 243 238 235 282 311 334 352 300 293 290 280 265 253 265 284 290 247 265 282 289 277 257 241 235 230 209 183 139 130 115 287 281 224 172 224 268 290 283 273 255 251
236 249 266 250 227 251 283 294 316 242 278 287 292 285 275 275 283 278 226 238 260 274 290 305 301 297 280 268 201 178 175 161 170 253 252 173 189 129 302 300 306 313 277